Location: Silent Lake
(44.9206°N, 78.0708°W)
Time: 07:28:49
(UTC-04:00)

Terra - Pass Details

Date: 19 April 2018
Orbit: 701 x 703 km, 98.2° (Epoch: 26 May)

Event Time Altitude Azimuth Distance (km) Brightness Sun altitude
Exits shadow 22:21:51 32° 73° (ENE) 1,199 2.7 -21.9°
Maximum altitude 22:22:04 32° 67° (ENE) 1,196 2.8 -21.9°
Drops below altitude 10° 22:26:18 10° 5° (N) 2,182 4.9 -22.4°
Sets 22:28:44 0° 356° (N) 3,104 5.9 -22.7°
